GW2597 Weather Reports


time (UTC)temp
C
wind
direction
speed
KPH
gust
KPH
rain 1hr
cm
rain 24hr
cm
rain mn
cm
humidity
%
barometer
mb
20260507154136 12 258 8.0 8.0 0.00 0.00 0.00 43 1009.4
20260507153632 12 282 12.9 12.9 0.00 0.00 0.00 48 1009.4
20260507153129 12 294 8.0 9.7 0.00 0.00 0.00 46 1009.8
20260507152625 12 276 8.0 9.7 0.00 0.00 0.00 46 1009.8
20260507152121 12 300 11.3 12.9 0.00 0.00 0.00 46 1009.8
20260507151617 12 323 4.8 6.4 0.00 0.00 0.00 46 1009.8
20260507151115 12 312 9.7 9.7 0.00 0.00 0.00 46 1009.8
20260507150612 12 276 9.7 9.7 0.00 0.00 0.00 44 1009.8
20260507150108 12 324 6.4 6.4 0.00 0.00 0.00 47 1009.8
20260507145603 11 264 6.4 6.4 0.00 0.00 0.00 56 1009.8
20260507145102 11 270 6.4 8.0 0.00 0.00 0.00 64 1009.8
20260507144557 11 302 6.4 6.4 0.00 0.00 0.00 62 1009.8
20260507144056 12 306 9.7 9.7 0.00 0.00 0.00 59 1009.8
20260507143552 11 294 9.7 9.7 0.00 0.00 0.00 60 1009.8
20260507143050 11 302 8.0 8.0 0.00 0.00 0.00 65 1009.8
20260507142550 11 282 8.0 8.0 0.00 0.00 0.00 65 1009.8
20260507142047 11 276 6.4 6.4 0.00 0.00 0.00 65 1009.4
20260507141543 11 291 0.0 0.0 0.00 0.00 0.00 64 1009.4
20260507141040 11 300 4.8 4.8 0.00 0.00 0.00 65 1009.4
20260507140537 11 330 6.4 6.4 0.00 0.00 0.00 66 1009.8
20260507140034 11 285 6.4 6.4 0.00 0.00 0.00 65 1009.8
20260507135531 12 270 6.4 6.4 0.00 0.00 0.00 67 1009.8
20260507135028 11 270 4.8 4.8 0.00 0.00 0.00 68 1009.8
20260507134525 11 312 4.8 6.4 0.00 0.00 0.00 69 1009.8
20260507134020 11 294 6.4 6.4 0.00 0.00 0.00 68 1009.8
20260507133517 11 336 9.7 9.7 0.00 0.00 0.00 67 1009.8
20260507133015 11 301 8.0 9.7 0.00 0.00 0.00 66 1009.8
20260507132511 11 288 4.8 6.4 0.00 0.00 0.00 69 1009.8
20260507132008 11 312 6.4 6.4 0.00 0.00 0.00 66 1009.8
20260507131505 11 312 4.8 4.8 0.00 0.00 0.00 67 1009.8
20260507131002 11 288 8.0 9.7 0.00 0.00 0.00 68 1010.1
20260507130459 11 312 6.4 6.4 0.00 0.00 0.00 67 1009.8
20260507125957 10 301 4.8 6.4 0.00 0.00 0.00 69 1010.1
20260507125455 10 300 6.4 6.4 0.00 0.00 0.00 70 1009.8
20260507124952 10 294 6.4 6.4 0.00 0.00 0.00 70 1009.8
20260507124448 10 330 3.2 3.2 0.00 0.00 0.00 72 1009.8
20260507123946 10 312 6.4 6.4 0.00 0.00 0.00 72 1009.8
20260507123444 10 282 6.4 6.4 0.00 0.00 0.00 72 1009.8
20260507122940 10 306 3.2 3.2 0.00 0.00 0.00 74 1009.8
20260507122435 10 306 8.0 9.7 0.00 0.00 0.00 74 1009.8
20260507121932 10 329 4.8 4.8 0.00 0.00 0.00 76 1009.8
20260507121427 9 264 4.8 4.8 0.00 0.00 0.00 75 1009.8
20260507120924 9 342 6.4 6.4 0.00 0.00 0.00 77 1010.1
20260507120420 9 276 8.0 9.7 0.00 0.00 0.00 78 1010.1
20260507115917 8 294 6.4 6.4 0.00 0.00 0.00 79 1010.1
20260507115413 8 300 6.4 6.4 0.00 0.00 0.00 79 1009.8
20260507114909 8 294 3.2 3.2 0.00 0.00 0.00 80 1009.8
20260507114406 8 306 3.2 3.2 0.00 0.00 0.00 81 1009.8
20260507113903 8 276 9.7 9.7 0.00 0.00 0.00 82 1010.1
20260507113400 8 300 4.8 6.4 0.00 0.00 0.00 83 1009.8
20260507112857 8 300 4.8 4.8 0.00 0.00 0.00 83 1009.8
20260507112354 8 306 6.4 6.4 0.00 0.00 0.00 83 1009.8
20260507111852 8 348 6.4 6.4 0.00 0.00 0.00 84 1009.8
20260507111349 7 300 3.2 3.2 0.00 0.00 0.00 84 1009.8
20260507110845 7 300 4.8 4.8 0.00 0.00 0.00 84 1009.8
20260507110341 7 300 6.4 6.4 0.00 0.00 0.00 84 1009.8
20260507105838 7 294 3.2 3.2 0.00 0.00 0.00 84 1009.8
20260507105334 7 294 4.8 6.4 0.00 0.00 0.00 84 1009.4
20260507104831 7 294 6.4 8.0 0.00 0.00 0.00 84 1009.4
20260507104328 7 336 4.8 6.4 0.00 0.00 0.00 83 1009.1
20260507103824 8 306 4.8 4.8 0.00 0.00 0.00 83 1009.1
20260507103320 7 336 4.8 6.4 0.00 0.00 0.00 83 1009.4
20260507102817 7 312 4.8 6.4 0.00 0.00 0.00 84 1009.4
20260507102314 7 300 4.8 4.8 0.00 0.00 0.00 84 1009.4
20260507101810 7 300 4.8 4.8 0.00 0.00 0.00 84 1009.1
20260507101310 7 300 6.4 8.0 0.00 0.00 0.00 84 1009.4
20260507100808 7 300 6.4 8.0 0.00 0.00 0.00 84 1009.4
20260507100306 7 300 4.8 4.8 0.00 0.00 0.00 84 1009.1
20260507095804 7 324 3.2 3.2 0.00 0.00 0.00 85 1009.1
20260507095300 7 324 4.8 4.8 0.00 0.00 0.00 85 1009.4
20260507094757 7 342 6.4 6.4 0.00 0.00 0.00 85 1009.4
20260507094254 7 336 4.8 4.8 0.00 0.00 0.00 84 1009.4
20260507093751 7 306 6.4 6.4 0.00 0.00 0.00 85 1009.4
20260507093249 7 318 4.8 4.8 0.00 0.00 0.00 84 1009.4
20260507092747 7 312 6.4 6.4 0.00 0.00 0.00 85 1009.4
20260507092242 7 306 6.4 6.4 0.00 0.00 0.00 85 1009.4
20260507091739 8 312 8.0 9.7 0.00 0.00 0.00 85 1009.4
20260507091236 8 300 6.4 6.4 0.00 0.00 0.00 85 1009.4
20260507090731 8 300 8.0 8.0 0.00 0.00 0.00 85 1009.4
20260507090228 8 300 6.4 8.0 0.00 0.00 0.00 85 1009.8
20260507085725 8 300 4.8 6.4 0.00 0.00 0.00 85 1009.8
20260507085222 8 288 4.8 4.8 0.00 0.00 0.00 86 1009.8
20260507084719 8 288 4.8 4.8 0.00 0.00 0.00 86 1009.8
20260507084215 8 312 3.2 3.2 0.00 0.00 0.00 86 1009.1
20260507083713 8 300 4.8 4.8 0.00 0.00 0.00 86 1009.1
20260507083209 8 300 4.8 4.8 0.00 0.00 0.00 86 1009.4
20260507082705 8 264 6.4 6.4 0.00 0.00 0.00 87 1009.1
20260507082201 8 306 4.8 4.8 0.00 0.00 0.00 87 1009.1
20260507081658 8 300 4.8 4.8 0.00 0.00 0.00 87 1009.1
20260507081154 8 342 0.0 0.0 0.00 0.00 0.00 88 1009.1
20260507080651 8 306 3.2 3.2 0.00 0.00 0.00 89 1009.1
20260507080143 8 306 0.0 0.0 0.00 0.00 0.00 88 1008.8
20260507075642 8 342 3.2 3.2 0.00 0.00 0.00 88 1008.8
20260507075139 8 312 3.2 3.2 0.00 0.00 0.00 88 1009.1
20260507074636 8 312 3.2 3.2 0.00 0.00 0.00 88 1009.1
20260507074129 8 294 4.8 4.8 0.00 0.00 0.00 88 1009.4
20260507073625 8 276 4.8 4.8 0.00 0.00 0.00 88 1009.4
20260507073121 8 312 3.2 3.2 0.00 0.00 0.00 88 1009.1
20260507072619 8 306 4.8 4.8 0.00 0.00 0.00 88 1009.1
20260507072116 8 282 4.8 6.4 0.00 0.00 0.00 88 1009.1
20260507071613 8 300 4.8 4.8 0.00 0.00 0.00 88 1008.8
20260507071110 8 300 3.2 3.2 0.00 0.00 0.00 88 1008.8
20260507070607 8 300 4.8 4.8 0.00 0.00 0.00 88 1008.3
20260507070104 8 306 4.8 6.4 0.00 0.00 0.00 88 1008.3
20260507065600 8 294 4.8 4.8 0.00 0.00 0.00 88 1008.8
20260507065057 8 294 6.4 6.4 0.00 0.00 0.00 88 1008.3
20260507064555 9 306 3.2 3.2 0.00 0.00 0.00 87 1008.3
20260507064054 9 270 8.0 8.0 0.00 0.00 0.00 87 1008.3
20260507063550 9 336 4.8 4.8 0.00 0.00 0.00 87 1009.1
20260507063048 9 312 4.8 4.8 0.00 0.00 0.00 87 1008.3
20260507062544 9 306 6.4 6.4 0.00 0.00 0.00 87 1008.0
20260507062042 9 300 8.0 9.7 0.00 0.00 0.00 87 1008.3
20260507061539 9 324 6.4 6.4 0.00 0.00 0.00 87 1008.3
20260507061037 9 300 6.4 8.0 0.00 0.00 0.00 88 1008.8
20260507060535 9 276 6.4 6.4 0.00 0.00 0.00 89 1008.8
20260507060031 9 282 6.4 6.4 0.00 0.00 0.00 89 1008.3
20260507055526 9 270 3.2 3.2 0.00 0.00 0.00 89 1008.3
20260507055022 9 294 3.2 3.2 0.00 0.00 0.00 89 1009.1
20260507054518 9 282 3.2 3.2 0.00 0.00 0.00 89 1009.1
20260507054015 9 282 4.8 4.8 0.00 0.00 0.00 89 1008.8
20260507053514 9 288 3.2 3.2 0.00 0.00 0.00 89 1008.8
20260507053012 9 282 3.2 3.2 0.00 0.00 0.00 89 1008.8
20260507052509 9 294 3.2 3.2 0.00 0.00 0.00 89 1009.1
20260507052006 9 300 4.8 4.8 0.00 0.00 0.00 89 1009.1
20260507051504 9 294 4.8 4.8 0.00 0.00 0.00 89 1009.1
20260507051000 9 306 4.8 6.4 0.00 0.00 0.00 90 1008.8
20260507050456 9 294 3.2 3.2 0.00 0.00 0.00 90 1009.1
20260507045953 9 300 4.8 4.8 0.00 0.00 0.00 90 1008.8
20260507045450 9 306 4.8 4.8 0.00 0.00 0.00 89 1008.8
20260507044948 9 312 3.2 3.2 0.00 0.00 0.00 89 1009.1
20260507044444 10 312 3.2 3.2 0.00 0.00 0.00 89 1009.1
20260507043940 10 318 1.6 1.6 0.00 0.00 0.00 89 1008.8
20260507043436 10 18 0.0 0.0 0.00 0.00 0.00 89 1008.8
20260507042933 10 318 0.0 0.0 0.00 0.00 0.00 90 1009.1
20260507042430 10 336 4.8 4.8 0.00 0.00 0.00 90 1009.1
20260507041925 10 312 3.2 3.2 0.00 0.00 0.00 90 1009.1
20260507041422 10 342 6.4 6.4 0.00 0.00 0.00 90 1009.1
20260507040920 10 318 3.2 3.2 0.00 0.00 0.00 90 1009.1
20260507040415 10 300 3.2 3.2 0.00 0.00 0.00 90 1008.8
20260507035911 10 312 3.2 3.2 0.03 0.43 0.43 90 1008.8
20260507035408 10 306 3.2 3.2 0.03 0.43 0.43 89 1008.8
20260507034905 11 330 3.2 3.2 0.03 0.43 0.43 90 1008.8
20260507034401 11 312 3.2 3.2 0.03 0.43 0.43 91 1008.3
20260507033859 11 294 4.8 4.8 0.03 0.43 0.43 91 1008.8
20260507033358 11 294 4.8 6.4 0.03 0.43 0.43 92 1008.8
20260507032854 11 300 4.8 4.8 0.03 0.43 0.43 91 1008.3
20260507032351 11 296 4.8 4.8 0.03 0.43 0.43 91 1008.3
20260507031847 11 300 6.4 6.4 0.03 0.43 0.43 91 1008.3
20260507031344 11 306 6.4 6.4 0.03 0.43 0.43 91 1008.0
20260507030840 11 312 4.8 4.8 0.03 0.43 0.43 91 1007.6
20260507030338 12 300 8.0 9.7 0.03 0.43 0.43 91 1008.0
20260507025834 12 306 9.7 9.7 0.03 0.38 0.38 90 1008.0
20260507025332 12 312 4.8 4.8 0.03 0.38 0.38 91 1008.0
20260507024830 12 342 6.4 8.0 0.03 0.38 0.38 91 1008.3
20260507024327 13 306 4.8 4.8 0.00 0.36 0.36 91 1008.0
20260507023822 13 294 9.7 9.7 0.00 0.36 0.36 91 1008.0
20260507023319 13 294 4.8 4.8 0.00 0.36 0.36 90 1008.0
20260507022817 13 306 6.4 6.4 0.00 0.36 0.36 91 1008.0
20260507022313 13 300 6.4 6.4 0.00 0.36 0.36 91 1007.6
20260507021809 13 300 3.2 3.2 0.00 0.36 0.36 92 1007.6
20260507021305 13 312 4.8 4.8 0.00 0.36 0.36 94 1007.6
20260507020803 14 318 0.0 0.0 0.00 0.36 0.36 95 1007.6
20260507020259 14 346 0.0 0.0 0.00 0.36 0.36 95 1007.6
20260507015757 14 346 0.0 0.0 0.00 0.36 0.36 95 1007.3
20260507015254 14 346 0.0 0.0 0.00 0.36 0.36 95 1007.3
20260507014751 14 346 0.0 0.0 0.00 0.36 0.36 95 1007.3
20260507014247 14 346 0.0 0.0 0.00 0.36 0.36 95 1007.3
20260507013744 14 346 0.0 0.0 0.00 0.36 0.36 95 1007.0
20260507013241 14 346 0.0 0.0 0.00 0.36 0.36 95 1007.3
20260507012738 14 346 0.0 0.0 0.00 0.36 0.36 95 1007.3
20260507012233 14 346 0.0 0.0 0.00 0.36 0.36 95 1007.0
20260507011731 14 346 3.2 3.2 0.00 0.36 0.36 95 1007.3
20260507011228 14 348 0.0 0.0 0.00 0.36 0.36 95 1007.3
20260507010722 14 348 0.0 0.0 0.00 0.36 0.36 95 1007.3
20260507010218 14 0 0.0 0.0 0.00 0.36 0.36 95 1007.3
20260507005716 14 0 0.0 0.0 0.00 0.36 0.36 95 1007.3
20260507005212 14 0 0.0 0.0 0.00 0.36 0.36 95 1007.3
20260507004709 14 354 0.0 0.0 0.00 0.36 0.36 95 1007.3
20260507004206 14 354 0.0 0.0 0.00 0.36 0.36 95 1007.3
20260507003702 14 354 0.0 0.0 0.00 0.36 0.36 95 1007.0
20260507003158 14 354 0.0 0.0 0.00 0.36 0.36 95 1006.6
20260507002654 14 354 0.0 0.0 0.00 0.36 0.36 95 1006.6
20260507002150 14 0 0.0 0.0 0.00 0.36 0.36 95 1007.0
20260507001647 14 0 0.0 0.0 0.00 0.36 0.36 95 1007.0
20260507001144 14 336 0.0 0.0 0.00 0.36 0.36 95 1007.0
20260507000641 14 336 0.0 0.0 0.00 0.36 0.36 95 1007.0
20260507000136 14 6 0.0 0.0 0.00 0.36 0.36 95 1006.6
20260506235634 14 6 0.0 0.0 0.00 0.36 0.36 95 1007.0
20260506235133 14 6 0.0 0.0 0.00 0.36 0.36 95 1006.6
20260506234631 14 18 0.0 0.0 0.00 0.36 0.36 95 1006.6
20260506234128 14 0 0.0 0.0 0.00 0.36 0.36 95 1007.0
20260506233625 14 36 0.0 0.0 0.00 0.36 0.36 94 1006.3
20260506233122 14 36 0.0 0.0 0.00 0.36 0.36 94 1006.6
20260506232618 14 264 0.0 0.0 0.00 0.36 0.36 94 1006.6
20260506232114 14 264 0.0 0.0 0.00 0.36 0.36 94 1006.6
20260506231611 14 162 0.0 0.0 0.00 0.36 0.36 94 1007.0
20260506231109 14 126 0.0 0.0 0.00 0.36 0.36 94 1006.6
20260506230606 14 174 0.0 0.0 0.00 0.36 0.36 94 1007.0
20260506230103 14 180 0.0 0.0 0.00 0.36 0.36 94 1007.0
20260506225559 14 198 0.0 0.0 0.00 0.36 0.36 94 1007.0
20260506225056 14 198 0.0 0.0 0.00 0.36 0.36 94 1007.0
20260506224553 14 198 0.0 0.0 0.00 0.36 0.36 94 1007.0
20260506224049 14 198 3.2 3.2 0.00 0.36 0.36 94 1007.0
20260506223545 14 198 0.0 0.0 0.00 0.36 0.36 94 1007.0
20260506223042 14 6 0.0 0.0 0.00 0.36 0.36 94 1007.0
20260506222539 15 6 0.0 0.0 0.00 0.36 0.36 94 1007.0
20260506222035 15 12 3.2 3.2 0.00 0.36 0.36 94 1007.3
20260506221533 15 12 0.0 0.0 0.00 0.36 0.36 94 1007.0
20260506221031 15 12 0.0 0.0 0.00 0.36 0.36 94 1007.3
20260506220526 15 14 0.0 0.0 0.00 0.36 0.36 94 1007.0
20260506220022 15 14 0.0 0.0 0.00 0.36 0.36 94 1007.3
20260506215519 15 14 0.0 0.0 0.03 0.36 0.36 94 1007.0
20260506215015 15 14 0.0 0.0 0.03 0.36 0.36 94 1007.3
20260506214512 15 18 0.0 0.0 0.03 0.36 0.36 94 1007.0
20260506214009 15 6 0.0 0.0 0.03 0.36 0.36 94 1007.3
20260506213507 15 6 0.0 0.0 0.03 0.36 0.36 94 1007.0
20260506213004 15 297 0.0 0.0 0.03 0.36 0.36 94 1007.0
20260506212500 15 48 0.0 0.0 0.00 0.30 0.30 94 1007.0
20260506211955 15 48 0.0 0.0 0.00 0.30 0.30 94 1007.0
20260506211451 15 324 0.0 0.0 0.00 0.30 0.30 94 1007.3
20260506210949 15 342 0.0 0.0 0.00 0.30 0.30 94 1007.3
20260506210445 15 328 0.0 0.0 0.00 0.30 0.30 94 1007.3
20260506205942 15 324 3.2 3.2 0.08 0.30 0.30 94 1007.3
20260506205438 15 48 0.0 0.0 0.03 0.28 0.28 94 1007.3
20260506204934 15 264 0.0 0.0 0.03 0.28 0.28 93 1007.3
20260506204432 15 262 1.6 1.6 0.03 0.28 0.28 93 1007.6
20260506203930 15 294 0.0 0.0 0.03 0.28 0.28 93 1007.3
20260506203427 15 252 0.0 0.0 0.03 0.28 0.28 93 1007.6
20260506202924 15 354 0.0 0.0 0.03 0.28 0.28 93 1007.6
20260506202421 15 6 0.0 0.0 0.03 0.28 0.28 93 1007.3
20260506201917 15 352 0.0 0.0 0.00 0.23 0.23 93 1007.6
20260506201415 15 352 0.0 0.0 0.00 0.23 0.23 93 1007.6
20260506200911 16 312 1.6 1.6 0.00 0.23 0.23 93 1007.6
20260506200407 15 318 0.0 0.0 0.00 0.23 0.23 92 1007.6
20260506195904 15 6 0.0 0.0 0.03 0.23 0.23 92 1008.0
20260506195401 15 186 0.0 0.0 0.03 0.23 0.23 92 1008.0
20260506194858 16 108 0.0 0.0 0.03 0.23 0.23 92 1008.0
20260506194355 15 306 0.0 0.0 0.00 0.18 0.18 92 1008.0
20260506193852 16 282 3.2 3.2 0.00 0.18 0.18 92 1008.0
20260506193349 16 300 4.8 4.8 0.00 0.18 0.18 92 1008.0
20260506192845 16 228 0.0 0.0 0.00 0.18 0.18 92 1008.0
20260506192342 16 234 0.0 0.0 0.00 0.18 0.18 92 1008.0
20260506191839 16 312 3.2 3.2 0.00 0.18 0.18 92 1008.0
20260506191335 16 306 0.0 0.0 0.00 0.18 0.18 92 1007.6
20260506190832 16 306 0.0 0.0 0.00 0.18 0.18 92 1007.6
20260506190328 16 306 0.0 0.0 0.00 0.18 0.18 92 1007.6
20260506185826 16 48 0.0 0.0 0.10 0.18 0.18 92 1008.0
20260506185322 16 48 0.0 0.0 0.10 0.18 0.18 92 1008.0
20260506184820 16 264 0.0 0.0 0.10 0.18 0.18 92 1008.0
20260506184317 15 264 0.0 0.0 0.10 0.18 0.18 92 1008.3
20260506183814 15 264 0.0 0.0 0.08 0.15 0.15 91 1008.3
20260506183309 15 264 3.2 3.2 0.08 0.15 0.15 91 1008.3
20260506182806 16 264 0.0 0.0 0.08 0.15 0.15 91 1008.8
20260506182306 16 264 0.0 0.0 0.03 0.10 0.10 90 1008.8
20260506181801 16 264 0.0 0.0 0.03 0.10 0.10 89 1008.3
20260506181259 16 264 3.2 3.2 0.03 0.10 0.10 89 1008.8
20260506180756 16 264 4.8 4.8 0.00 0.08 0.08 88 1008.8
20260506180252 16 270 3.2 3.2 0.00 0.08 0.08 87 1009.1
20260506175748 16 276 3.2 3.2 0.03 0.03 0.03 86 1008.8
20260506175245 16 282 4.8 4.8 0.03 0.03 0.03 85 1009.1
20260506174743 17 276 4.8 4.8 0.00 0.00 0.00 82 1009.1
20260506174239 17 270 6.4 6.4 0.00 0.00 0.00 78 1009.1
20260506173737 18 270 4.8 4.8 0.00 0.00 0.00 74 1009.1
20260506173234 18 276 4.8 6.4 0.00 0.00 0.00 72 1009.1
20260506172731 19 282 6.4 6.4 0.00 0.00 0.00 70 1008.8
20260506172227 19 282 6.4 8.0 0.00 0.00 0.00 66 1008.8
20260506171725 20 270 3.2 3.2 0.00 0.00 0.00 65 1008.3
20260506171222 20 246 8.0 9.7 0.00 0.00 0.00 64 1008.8
20260506170719 20 282 6.4 6.4 0.00 0.00 0.00 63 1008.3
20260506170216 20 278 8.0 8.0 0.00 0.00 0.00 62 1008.3
20260506165714 20 290 6.4 6.4 0.00 0.00 0.00 63 1008.8
20260506165211 20 234 3.2 3.2 0.00 0.00 0.00 64 1008.8
20260506164708 20 264 4.8 6.4 0.00 0.00 0.00 65 1009.1
20260506164205 20 348 6.4 6.4 0.00 0.00 0.00 66 1008.8
20260506163701 20 306 0.0 0.0 0.00 0.00 0.00 66 1009.1
20260506163157 20 270 1.6 1.6 0.00 0.00 0.00 66 1009.1
20260506162653 20 346 3.2 3.2 0.00 0.00 0.00 68 1009.1
20260506162150 20 324 3.2 3.2 0.00 0.00 0.00 68 1009.1
20260506161647 20 341 0.0 0.0 0.00 0.00 0.00 68 1009.1
20260506161144 20 324 4.8 4.8 0.00 0.00 0.00 67 1009.1
20260506160642 20 0 0.0 0.0 0.00 0.00 0.00 67 1009.1
20260506160139 21 0 3.2 3.2 0.00 0.00 0.00 65 1009.4
20260506155637 20 15 0.0 0.0 0.00 0.00 0.00 68 1009.4
20260506155134 20 342 0.0 0.0 0.00 0.00 0.00 70 1009.8